Showing default

XCUBE-1, 62400

Orbit data source: Space-Track

XCUBE-1, 62400 is an American payload satellite in LEO that was launched on Sat, 21 Dec 2024 UTC via an FALCON 9 launch vehicle from the Air Force Western Test Range (AFWTR). Payload-class satellites include a variety of spacecraft equipped with specific instruments for various scientific and technological missions. These include communications satellites like Starlink; space stations such as the ISS; scientific satellites like the Hubble; Earth observation satellites from companies like Planet Labs, Umbra, and HawkEye 360; GPS; miniature CubeSats for education and research; and military/defense satellites.

Loading next visibility...
Identifier
62400, 2024-247Z
Orbit
LEO
Country
Flag of USUS
Related business
Manufacturer
EXOBOT
Mission
Operational Commercial Technology
Bus & Motor
CUBESAT 6U, Unknown motor
Mass
12 kg wet, 12 kg dry
Launch date (UTC)
2024-12-21 (1 year ago)
Launch vehicle
FALCON 9
Launch site
Air Force Western Test Range (AFWTR)
Object type
Payload
Rocket body
Debris
Shape & HBR
Box + 2 Pan, 1.0 m
Radar Cross Section
0.138 m², Small (<0.1 m²)

Expand to show TLE details & history
Last TLE update: 12 hours ago

TLE from 12 hours ago
0 XCUBE-1
1 62400U 24247Z   26094.04217684  .00015298  00000-0  55126-3 0  9991
2 62400  44.9979 338.1188 0003601 144.9455 215.1666 15.28463123 71617
Epoch: 2026-04-04T01:00Z
TLE epoch observation values (Epoch: 2026-04-04T01:00:44.078Z)
Latitude
-0.00003°
Longitude
130.56748°
Altitude
482.423 km
Speed
7.625 km/s
True Right ascension
22h 32m 28s
True Declination
0° 00' 00"
Sunlit
Object was in daylight at epoch
Visualization orbit readout
Latitude
Unknown
Longitude
Unknown
Altitude
Unknown
Speed
Unknown
Apparent Right ascension
Unknown
Apparent Declination
Unknown
Sunlit
N/A
Visualization observer readout
Local Sidereal Time
19:15:58
Azimuth
Unknown
Elevation
Unknown
Doppler factor
Unknown
Orbital elements
Apogee altitude
484.487 km
Perigee altitude
479.546 km
Semi-major axis
6,860.153 km
Eccentricity
0.00036
Inclination
44.9979°
RAAN
338.1188°
Arg. of periapsis
144.9455°
True anomaly
215.14284°
Mean anomaly
215.1666°
Eccentric anomaly
215.15472°
Mean motion
3.81982 °/min
Orbital period
94.25 mins
BSTAR
0.00055126
Loading maneuver chart data...
Computing Atmospheric mass density...
Loading historical data...
Loading historical data...
Loading historical data...
Loading historical data...
Loading historical data...
Loading historical data...
Loading historical data...

Documentation

Showing up to 5 results
|